QPF
0.02 0.03 0.02 0.02 0.02 0.01 0.01 0.01 0.01 0.01 0.01 0.02 0.02 0.02 0.02 0.03 0.04 0.03 0.02 0.02 0.01 0.01 0.01 0.02 0.02 0.02 0.03 0.04 0.05 0.06 0.06 0.05 0.04 0.04 0.04 0.04 0.04 0.03 0.03 0.04 0.04 0.05 0.06 0.06
0.02 0.02 0.02 0.01 0.02 0.01 0.01 0.02 0.01 0.01 0.01 0.02 0.03 0.04 0.03 0.02 0.03 0.04 0.04 0.03 0.03 0.02 0.02 0.01 0.01 0.01 0.02 0.03 0.05 0.05 0.05 0.05 0.05 0.05 0.05 0.05 0.04 0.04 0.03 0.03 0.03 0.04 0.04 0.05
0.02 0.02 0.02 0.02 0.02 0.02 0.02 0.02 0.02 0.02 0.02 0.03 0.03 0.04 0.04 0.02 0.02 0.03 0.03 0.04 0.04 0.03 0.03 0.02 0.02 0.02 0.01 0.01 0.02 0.02 0.03 0.03 0.03 0.04 0.04 0.04 0.03 0.03 0.03 0.03 0.03 0.03 0.04 0.04
0.01 0.01 0.01 0.02 0.02 0.02 0.02 0.02 0.02 0.03 0.03 0.03 0.03 0.04 0.03 0.02 0.01 0.01 0.02 0.03 0.03 0.03 0.03 0.04 0.04 0.03 0.02 0.01 0.01 0.01 0.02 0.02 0.02 0.02 0.02 0.02 0.02 0.03 0.02 0.02 0.02 0.03 0.03 0.03
0.02 0.01 0.01 0.02 0.02 0.01 0.02 0.02 0.02 0.03 0.04 0.04 0.03 0.02 0.02 0.01 0.01 0.01 0.01 0.02 0.02 0.03 0.03 0.04 0.05 0.05 0.04 0.03 0.02 0.01 0.01 0.01 0.02 0.02 0.03 0.03 0.04 0.03 0.03 0.02 0.03 0.03 0.03 0.03
0.01 0.01 0.01 0.01 0.01 0.02 0.02 0.03 0.03 0.04 0.06 0.05 0.02 0.01 0.01 0.01 0.01 0.01 0.01 0.03 0.03 0.02 0.02 0.03 0.04 0.06 0.07 0.06 0.06 0.05 0.04 0.02 0.02 0.02 0.03 0.03 0.03 0.04 0.05 0.04 0.04 0.03 0.03 0.03
0.01 0.01 0.01 0.01 0.01 0.01 0.02 0.05 0.06 0.07 0.08 0.05 0.01 0.01 0.01 0.01 0.01 0.01 0.01 0.02 0.02 0.01 0.01 0.02 0.02 0.03 0.04 0.05 0.06 0.07 0.07 0.06 0.04 0.03 0.03 0.04 0.04 0.04 0.04 0.05 0.05 0.04 0.04 0.03
0.02 0.01 0.01 0.02 0.02 0.01 0.01 0.04 0.06 0.04 0.04 0.02 0.01 0.01 0.01 0.01 0.00 0.00 0.00 0.01 0.01 0.01 0.01 0.01 0.02 0.02 0.02 0.03 0.03 0.04 0.04 0.04 0.03 0.02 0.02 0.02 0.02 0.03 0.04 0.04 0.05 0.05 0.04 0.03
0.01 0.01 0.01 0.02 0.02 0.02 0.02 0.02 0.04 0.05 0.03 0.02 0.01 0.01 0.01 0.00 0.00 0.00 0.00 0.00 0.00 0.00 0.00 0.01 0.01 0.01 0.01 0.02 0.02 0.03 0.03 0.04 0.04 0.04 0.03 0.02 0.02 0.02 0.03 0.03 0.04 0.04 0.05 0.05
0.02 0.01 0.01 0.02 0.02 0.02 0.02 0.03 0.03 0.05 0.04 0.02 0.01 0.01 0.01 0.01 0.00 0.00 0.00 0.00 0.00 0.00 0.00 0.00 0.00 0.00 0.00 0.01 0.02 0.03 0.03 0.04 0.05 0.05 0.06 0.05 0.04 0.03 0.02 0.02 0.03 0.03 0.03 0.03
0.02 0.02 0.01 0.02 0.03 0.02 0.02 0.03 0.04 0.05 0.04 0.02 0.02 0.02 0.02 0.01 0.01 0.00 0.01 0.01 0.00 0.00 0.00 0.00 0.00 0.00 0.00 0.01 0.01 0.02 0.03 0.04 0.05 0.06 0.07 0.07 0.07 0.06 0.05 0.04 0.03 0.03 0.03 0.04
0.02 0.02 0.01 0.01 0.03 0.02 0.02 0.01 0.03 0.04 0.04 0.03 0.02 0.02 0.02 0.01 0.01 0.01 0.00 0.00 0.00 0.00 0.00 0.00 0.00 0.00 0.00 0.00 0.00 0.01 0.02 0.03 0.05 0.06 0.08 0.09 0.09 0.09 0.08 0.07 0.07 0.06 0.05 0.06
0.02 0.02 0.02 0.01 0.01 0.02 0.02 0.02 0.01 0.02 0.03 0.03 0.03 0.02 0.01 0.01 0.01 0.00 0.01 0.00 0.00 0.00 0.00 0.00 0.00 0.00 0.00 0.00 0.00 0.01 0.01 0.02 0.03 0.05 0.06 0.06 0.06 0.06 0.05 0.05 0.05 0.05 0.04 0.04
0.02 0.03 0.03 0.01 0.00 0.01 0.01 0.01 0.01 0.01 0.02 0.02 0.02 0.02 0.02 0.02 0.01 0.01 0.01 0.01 0.00 0.00 0.00 0.00 0.01 0.01 0.01 0.01 0.01 0.01 0.01 0.01 0.01 0.02 0.03 0.04 0.04 0.04 0.04 0.04 0.04 0.03 0.02 0.02
0.01 0.02 0.03 0.01 0.00 0.00 0.01 0.00 0.00 0.01 0.01 0.01 0.01 0.01 0.01 0.02 0.03 0.02 0.01 0.01 0.01 0.01 0.01 0.01 0.01 0.01 0.01 0.01 0.01 0.01 0.01 0.01 0.01 0.02 0.02 0.03 0.03 0.03 0.04 0.03 0.02 0.02 0.01 0.01
0.01 0.01 0.01 0.01 0.00 0.00 0.00 0.00 0.00 0.00 0.00 0.00 0.00 0.00 0.00 0.01 0.02 0.02 0.01 0.01 0.01 0.01 0.01 0.00 0.01 0.01 0.01 0.01 0.00 0.01 0.01 0.01 0.01 0.01 0.01 0.02 0.02 0.02 0.02 0.02 0.01 0.01 0.01 0.01
0.01 0.01 0.01 0.01 0.00 0.00 0.00 0.00 0.00 0.00 0.00 0.00 0.00 0.00 0.00 0.00 0.01 0.02 0.01 0.01 0.00 0.00 0.00 0.00 0.01 0.01 0.01 0.00 0.01 0.01 0.01 0.01 0.01 0.01 0.01 0.01 0.01 0.01 0.01 0.01 0.01 0.01 0.01 0.01
0.01 0.00 0.01 0.01 0.01 0.00 0.00 0.00 0.00 0.00 0.00 0.00 0.00 0.00 0.00 0.00 0.00 0.01 0.01 0.01 0.00 0.00 0.00 0.00 0.00 0.01 0.01 0.01 0.01 0.01 0.01 0.01 0.01 0.01 0.01 0.01 0.01 0.01 0.01 0.01 0.01 0.01 0.01 0.01
0.02 0.01 0.00 0.00 0.00 0.00 0.00 0.00 0.00 0.00 0.00 0.00 0.00 0.00 0.00 0.00 0.00 0.00 0.00 0.01 0.01 0.01 0.00 0.00 0.00 0.01 0.01 0.01 0.01 0.00 0.00 0.00 0.01 0.01 0.01 0.01 0.01 0.01 0.01 0.01 0.01 0.01 0.00 0.00
0.01 0.01 0.01 0.00 0.00 0.00 0.00 0.00 0.00 0.00 0.00 0.00 0.00 0.00 0.00 0.00 0.00 0.00 0.00 0.00 0.00 0.00 0.00 0.00 0.00 0.00 0.01 0.01 0.01 0.00 0.00 0.00 0.00 0.00 0.01 0.01 0.01 0.01 0.01 0.01 0.01 0.00 0.00 0.00
0.01 0.01 0.01 0.01 0.01 0.00 0.00 0.00 0.00 0.00 0.00 0.00 0.00 0.00 0.00 0.00 0.00 0.00 0.00 0.00 0.00 0.00 0.00 0.00 0.00 0.00 0.00 0.01 0.01 0.00 0.00 0.00 0.00 0.00 0.00 0.00 0.00 0.00 0.00 0.00 0.00 0.00 0.00 0.00
0.00 0.00 0.00 0.00 0.01 0.00 0.00 0.00 0.00 0.00 0.00 0.00 0.00 0.00 0.00 0.00 0.00 0.00 0.00 0.00 0.00 0.00 0.00 0.00 0.00 0.00 0.01 0.01 0.01 0.01 0.00 0.00 0.00 0.00 0.00 0.00 0.00 0.00 0.00 0.00 0.00 0.00 0.00 0.00
0.00 0.00 0.00 0.00 0.00 0.00 0.00 0.00 0.00 0.00 0.00 0.00 0.00 0.00 0.00 0.00 0.00 0.00 0.00 0.00 0.00 0.00 0.00 0.00 0.00 0.00 0.01 0.01 0.01 0.01 0.01 0.00 0.00 0.00 0.00 0.00 0.00 0.00 0.00 0.00 0.00 0.00 0.00 0.00
0.00 0.00 0.00 0.00 0.00 0.00 0.00 0.00 0.00 0.00 0.00 0.00 0.00 0.00 0.00 0.00 0.00 0.00 0.00 0.00 0.00 0.00 0.00 0.00 0.00 0.00 0.01 0.01 0.00 0.00 0.01 0.01 0.00 0.00 0.00 0.00 0.00 0.00 0.00 0.00 0.00 0.00 0.00 0.00
0.00 0.00 0.00 0.00 0.00 0.00 0.00 0.00 0.00 0.00 0.00 0.00 0.00 0.00 0.00 0.00 0.00 0.00 0.00 0.00 0.00 0.00 0.00 0.00 0.00 0.00 0.01 0.01 0.02 0.02 0.01 0.01 0.00 0.00 0.00 0.00 0.00 0.00 0.00 0.00 0.00 0.00 0.00 0.00
0.00 0.00 0.00 0.00 0.00 0.00 0.00 0.00 0.00 0.00 0.00 0.00 0.00 0.00 0.00 0.00 0.00 0.00 0.00 0.00 0.00 0.00 0.00 0.00 0.00 0.01 0.01 0.01 0.01 0.02 0.02 0.01 0.00 0.00 0.00 0.00 0.00 0.00 0.00 0.00 0.00 0.00 0.00 0.00
MSLP
1028.43 1028.88 1029.51 1030.24 1031.04 1031.83 1032.59 1033.28 1033.91 1034.48 1035.01 1035.50 1035.95 1036.35 1036.67 1036.87 1036.94 1036.86 1036.65 1036.33 1035.94 1035.55 1035.21 1034.93 1034.74 1034.60 1034.49 1034.34 1034.13 1033.81 1033.38 1032.86 1032.30 1031.75 1031.25 1030.85 1030.56 1030.35 1030.19 1030.03 1029.82 1029.52 1029.12 1028.64
1030.09 1030.54 1031.09 1031.70 1032.32 1032.92 1033.46 1033.95 1034.39 1034.81 1035.22 1035.64 1036.07 1036.47 1036.82 1037.07 1037.19 1037.18 1037.03 1036.76 1036.43 1036.08 1035.76 1035.50 1035.31 1035.16 1035.04 1034.89 1034.67 1034.37 1033.96 1033.47 1032.94 1032.41 1031.93 1031.52 1031.19 1030.92 1030.69 1030.45 1030.15 1029.77 1029.31 1028.79
1031.78 1032.19 1032.67 1033.14 1033.58 1033.96 1034.27 1034.52 1034.74 1034.97 1035.22 1035.52 1035.86 1036.23 1036.58 1036.88 1037.08 1037.16 1037.11 1036.96 1036.73 1036.46 1036.19 1035.96 1035.78 1035.63 1035.49 1035.33 1035.11 1034.83 1034.46 1034.02 1033.54 1033.06 1032.60 1032.19 1031.83 1031.50 1031.19 1030.85 1030.47 1030.01 1029.50 1028.93
1033.33 1033.71 1034.09 1034.43 1034.70 1034.87 1034.96 1034.97 1034.95 1034.95 1035.00 1035.13 1035.35 1035.64 1035.96 1036.28 1036.56 1036.75 1036.84 1036.84 1036.75 1036.60 1036.42 1036.25 1036.09 1035.94 1035.79 1035.62 1035.42 1035.15 1034.83 1034.45 1034.03 1033.60 1033.18 1032.78 1032.39 1032.01 1031.63 1031.21 1030.75 1030.24 1029.68 1029.09
1034.64 1034.97 1035.27 1035.49 1035.61 1035.61 1035.50 1035.30 1035.05 1034.82 1034.65 1034.58 1034.63 1034.79 1035.04 1035.36 1035.68 1035.98 1036.22 1036.37 1036.45 1036.45 1036.40 1036.31 1036.20 1036.07 1035.92 1035.75 1035.55 1035.31 1035.03 1034.71 1034.36 1033.99 1033.62 1033.23 1032.83 1032.41 1031.96 1031.48 1030.96 1030.41 1029.83 1029.24
1035.66 1035.93 1036.15 1036.29 1036.31 1036.19 1035.93 1035.56 1035.12 1034.67 1034.28 1033.99 1033.83 1033.83 1033.96 1034.23 1034.56 1034.93 1035.30 1035.61 1035.86 1036.03 1036.12 1036.13 1036.08 1035.99 1035.86 1035.70 1035.51 1035.30 1035.06 1034.80 1034.52 1034.21 1033.87 1033.50 1033.09 1032.64 1032.15 1031.62 1031.07 1030.50 1029.92 1029.35
1036.39 1036.59 1036.76 1036.85 1036.82 1036.63 1036.30 1035.82 1035.24 1034.63 1034.03 1033.51 1033.14 1032.93 1032.91 1033.06 1033.36 1033.75 1034.20 1034.65 1035.05 1035.37 1035.60 1035.73 1035.76 1035.73 1035.63 1035.49 1035.32 1035.14 1034.95 1034.75 1034.52 1034.26 1033.95 1033.60 1033.19 1032.71 1032.19 1031.63 1031.05 1030.47 1029.90 1029.35
1036.85 1037.02 1037.16 1037.24 1037.21 1037.03 1036.68 1036.16 1035.51 1034.76 1033.99 1033.28 1032.68 1032.25 1032.03 1032.03 1032.23 1032.60 1033.07 1033.59 1034.10 1034.55 1034.91 1035.15 1035.28 1035.31 1035.26 1035.16 1035.03 1034.89 1034.74 1034.58 1034.40 1034.18 1033.91 1033.57 1033.15 1032.66 1032.10 1031.51 1030.91 1030.32 1029.75 1029.22
1037.14 1037.28 1037.43 1037.53 1037.55 1037.42 1037.12 1036.62 1035.94 1035.12 1034.23 1033.33 1032.53 1031.88 1031.45 1031.26 1031.32 1031.60 1032.03 1032.57 1033.14 1033.68 1034.13 1034.47 1034.69 1034.79 1034.80 1034.75 1034.67 1034.57 1034.47 1034.35 1034.22 1034.03 1033.78 1033.45 1033.02 1032.51 1031.93 1031.31 1030.67 1030.06 1029.48 1028.95
1037.34 1037.47 1037.63 1037.79 1037.88 1037.83 1037.60 1037.16 1036.49 1035.65 1034.67 1033.65 1032.67 1031.83 1031.19 1030.80 1030.69 1030.84 1031.19 1031.69 1032.26 1032.83 1033.35 1033.75 1034.04 1034.22 1034.30 1034.31 1034.27 1034.23 1034.17 1034.10 1034.00 1033.85 1033.62 1033.29 1032.86 1032.33 1031.72 1031.06 1030.39 1029.74 1029.12 1028.56
1037.52 1037.66 1037.86 1038.07 1038.22 1038.25 1038.09 1037.70 1037.07 1036.23 1035.21 1034.11 1033.01 1032.01 1031.20 1030.64 1030.36 1030.36 1030.60 1031.01 1031.54 1032.10 1032.62 1033.07 1033.40 1033.64 1033.77 1033.84 1033.87 1033.88 1033.87 1033.84 1033.78 1033.66 1033.45 1033.13 1032.69 1032.14 1031.51 1030.81 1030.10 1029.40 1028.73 1028.11
1037.78 1037.93 1038.15 1038.37 1038.55 1038.61 1038.49 1038.14 1037.54 1036.70 1035.68 1034.54 1033.38 1032.29 1031.36 1030.67 1030.25 1030.11 1030.23 1030.54 1030.99 1031.50 1032.00 1032.45 1032.81 1033.08 1033.27 1033.40 1033.48 1033.54 1033.58 1033.59 1033.56 1033.47 1033.27 1032.96 1032.53 1031.97 1031.32 1030.59 1029.84 1029.09 1028.36 1027.68
1038.15 1038.30 1038.50 1038.70 1038.84 1038.87 1038.72 1038.35 1037.75 1036.92 1035.91 1034.78 1033.61 1032.50 1031.53 1030.77 1030.27 1030.03 1030.04 1030.25 1030.61 1031.04 1031.50 1031.93 1032.29 1032.58 1032.81 1032.98 1033.11 1033.21 1033.29 1033.34 1033.34 1033.27 1033.09 1032.79 1032.37 1031.82 1031.16 1030.42 1029.64 1028.84 1028.06 1027.31
1038.65 1038.79 1038.93 1039.03 1039.07 1038.98 1038.73 1038.28 1037.63 1036.79 1035.79 1034.70 1033.58 1032.52 1031.58 1030.83 1030.30 1030.02 1029.95 1030.09 1030.36 1030.72 1031.11 1031.50 1031.85 1032.15 1032.40 1032.61 1032.78 1032.92 1033.04 1033.11 1033.13 1033.07 1032.91 1032.62 1032.21 1031.67 1031.01 1030.27 1029.48 1028.67 1027.85 1027.04
1039.28 1039.37 1039.40 1039.36 1039.20 1038.92 1038.50 1037.91 1037.16 1036.28 1035.30 1034.27 1033.24 1032.27 1031.42 1030.75 1030.27 1029.99 1029.90 1029.98 1030.19 1030.48 1030.82 1031.17 1031.50 1031.80 1032.07 1032.31 1032.52 1032.69 1032.83 1032.93 1032.95 1032.90 1032.73 1032.45 1032.05 1031.52 1030.88 1030.15 1029.36 1028.54 1027.70 1026.87
1039.98 1039.99 1039.88 1039.63 1039.24 1038.70 1038.04 1037.26 1036.38 1035.44 1034.47 1033.50 1032.59 1031.76 1031.05 1030.50 1030.11 1029.88 1029.81 1029.87 1030.04 1030.29 1030.59 1030.91 1031.24 1031.55 1031.85 1032.12 1032.36 1032.56 1032.72 1032.83 1032.85 1032.78 1032.61 1032.31 1031.90 1031.38 1030.75 1030.03 1029.26 1028.44 1027.60 1026.75
1040.67 1040.59 1040.30 1039.81 1039.15 1038.33 1037.41 1036.41 1035.39 1034.37 1033.40 1032.51 1031.71 1031.04 1030.49 1030.08 1029.81 1029.67 1029.64 1029.71 1029.88 1030.11 1030.39 1030.71 1031.05 1031.39 1031.73 1032.05 1032.34 1032.58 1032.76 1032.86 1032.87 1032.78 1032.57 1032.25 1031.81 1031.27 1030.63 1029.93 1029.16 1028.35 1027.51 1026.64
1041.23 1041.03 1040.55 1039.83 1038.90 1037.82 1036.64 1035.44 1034.27 1033.19 1032.23 1031.40 1030.73 1030.20 1029.81 1029.55 1029.40 1029.35 1029.38 1029.49 1029.67 1029.92 1030.22 1030.56 1030.94 1031.35 1031.75 1032.14 1032.48 1032.77 1032.97 1033.07 1033.06 1032.93 1032.67 1032.29 1031.81 1031.22 1030.56 1029.83 1029.05 1028.23 1027.38 1026.51
1041.52 1041.19 1040.54 1039.61 1038.46 1037.15 1035.78 1034.42 1033.15 1032.02 1031.07 1030.32 1029.75 1029.35 1029.09 1028.96 1028.92 1028.96 1029.06 1029.22 1029.43 1029.71 1030.06 1030.47 1030.92 1031.41 1031.90 1032.38 1032.80 1033.15 1033.38 1033.48 1033.44 1033.25 1032.93 1032.48 1031.91 1031.26 1030.53 1029.75 1028.94 1028.08 1027.21 1026.31
1041.41 1040.96 1040.17 1039.08 1037.77 1036.32 1034.82 1033.38 1032.07 1030.94 1030.03 1029.34 1028.86 1028.57 1028.42 1028.39 1028.44 1028.55 1028.71 1028.92 1029.19 1029.53 1029.95 1030.44 1030.99 1031.59 1032.19 1032.77 1033.28 1033.68 1033.95 1034.05 1033.97 1033.73 1033.33 1032.79 1032.14 1031.39 1030.58 1029.72 1028.84 1027.93 1027.01 1026.07
1040.83 1040.26 1039.36 1038.18 1036.79 1035.29 1033.77 1032.32 1031.04 1029.96 1029.12 1028.51 1028.12 1027.91 1027.85 1027.89 1028.00 1028.17 1028.39 1028.66 1028.99 1029.41 1029.92 1030.52 1031.19 1031.90 1032.61 1033.29 1033.88 1034.34 1034.63 1034.72 1034.61 1034.31 1033.83 1033.20 1032.44 1031.60 1030.69 1029.74 1028.77 1027.79 1026.80 1025.80
1039.72 1039.06 1038.10 1036.89 1035.51 1034.05 1032.59 1031.24 1030.05 1029.08 1028.34 1027.83 1027.53 1027.40 1027.40 1027.50 1027.66 1027.88 1028.16 1028.50 1028.91 1029.42 1030.03 1030.74 1031.52 1032.34 1033.15 1033.91 1034.55 1035.05 1035.34 1035.41 1035.27 1034.90 1034.35 1033.63 1032.78 1031.84 1030.84 1029.80 1028.75 1027.68 1026.62 1025.54
1038.13 1037.39 1036.40 1035.23 1033.93 1032.59 1031.29 1030.10 1029.08 1028.26 1027.66 1027.27 1027.07 1027.01 1027.07 1027.23 1027.45 1027.73 1028.07 1028.49 1029.00 1029.61 1030.33 1031.14 1032.01 1032.91 1033.78 1034.58 1035.25 1035.74 1036.01 1036.04 1035.84 1035.42 1034.80 1034.01 1033.09 1032.08 1031.00 1029.89 1028.76 1027.63 1026.49 1025.34
1036.15 1035.34 1034.36 1033.26 1032.11 1030.95 1029.86 1028.89 1028.09 1027.47 1027.04 1026.78 1026.68 1026.71 1026.85 1027.07 1027.36 1027.73 1028.16 1028.68 1029.30 1030.02 1030.83 1031.72 1032.66 1033.60 1034.49 1035.27 1035.91 1036.35 1036.56 1036.53 1036.27 1035.79 1035.11 1034.28 1033.32 1032.26 1031.15 1029.99 1028.81 1027.62 1026.42 1025.22
1033.90 1033.03 1032.09 1031.10 1030.12 1029.19 1028.35 1027.63 1027.07 1026.67 1026.42 1026.32 1026.34 1026.48 1026.71 1027.02 1027.41 1027.87 1028.43 1029.07 1029.81 1030.63 1031.54 1032.49 1033.45 1034.38 1035.23 1035.95 1036.50 1036.84 1036.95 1036.83 1036.49 1035.96 1035.24 1034.38 1033.41 1032.35 1031.23 1030.07 1028.88 1027.67 1026.44 1025.19
1031.51 1030.61 1029.72 1028.86 1028.08 1027.38 1026.80 1026.35 1026.03 1025.85 1025.79 1025.85 1026.01 1026.26 1026.60 1027.03 1027.54 1028.14 1028.83 1029.61 1030.47 1031.40 1032.38 1033.37 1034.32 1035.20 1035.96 1036.56 1036.97 1037.18 1037.16 1036.94 1036.51 1035.92 1035.19 1034.33 1033.38 1032.35 1031.27 1030.13 1028.96 1027.75 1026.51 1025.25
Thickness
5514 5519 5515 5515 5519 5526 5530 5532 5532 5532 5533 5537 5541 5542 5545 5548 5550 5553 5556 5558 5560 5560 5562 5563 5565 5567 5569 5571 5574 5575 5576 5577 5578 5579 5579 5580 5580 5580 5579 5579 5579 5580 5580 5581
5510 5502 5498 5503 5508 5514 5518 5520 5521 5521 5523 5527 5531 5533 5537 5539 5541 5544 5546 5548 5550 5551 5552 5553 5555 5557 5559 5561 5563 5565 5566 5566 5567 5568 5568 5568 5568 5568 5568 5567 5567 5568 5568 5568
5496 5488 5490 5497 5501 5505 5508 5510 5512 5513 5515 5519 5524 5532 5532 5532 5532 5533 5535 5537 5539 5541 5542 5543 5544 5547 5550 5551 5552 5554 5555 5556 5557 5557 5558 5558 5558 5558 5558 5557 5556 5556 5556 5556
5484 5482 5487 5492 5492 5497 5500 5499 5501 5504 5514 5518 5518 5529 5531 5528 5527 5527 5527 5529 5530 5531 5532 5534 5535 5537 5539 5540 5541 5543 5544 5546 5547 5547 5548 5547 5547 5546 5546 5544 5543 5543 5542 5543
5478 5477 5482 5484 5483 5487 5490 5491 5494 5499 5503 5507 5510 5515 5530 5522 5525 5526 5524 5522 5522 5522 5524 5525 5525 5526 5527 5529 5530 5532 5533 5534 5536 5537 5537 5536 5535 5534 5533 5532 5532 5530 5529 5529
5473 5471 5472 5474 5478 5481 5484 5487 5490 5493 5499 5502 5503 5508 5525 5524 5525 5525 5521 5516 5515 5515 5515 5515 5516 5516 5517 5518 5520 5521 5522 5522 5523 5524 5525 5524 5524 5522 5521 5521 5520 5519 5518 5517
5474 5473 5469 5469 5478 5480 5483 5489 5495 5498 5500 5507 5496 5501 5518 5518 5516 5515 5512 5509 5507 5506 5507 5507 5507 5508 5508 5508 5509 5510 5511 5510 5510 5511 5511 5511 5511 5510 5509 5508 5507 5505 5505 5504
5474 5477 5467 5465 5469 5475 5476 5482 5490 5497 5503 5507 5491 5503 5517 5506 5502 5502 5501 5498 5496 5496 5496 5496 5497 5497 5497 5498 5498 5500 5499 5499 5498 5498 5498 5498 5498 5497 5496 5494 5493 5491 5490 5489
5471 5471 5464 5462 5462 5468 5474 5473 5470 5476 5464 5480 5502 5503 5504 5498 5497 5494 5493 5492 5490 5489 5487 5487 5487 5487 5487 5487 5487 5488 5488 5488 5487 5486 5486 5486 5486 5484 5483 5481 5479 5477 5476 5474
5454 5460 5462 5461 5464 5464 5466 5467 5468 5474 5485 5497 5501 5503 5513 5502 5499 5494 5490 5488 5485 5482 5480 5479 5478 5477 5476 5476 5476 5476 5476 5476 5475 5475 5474 5473 5472 5471 5469 5467 5466 5464 5461 5459
5449 5455 5462 5462 5461 5464 5463 5462 5465 5467 5467 5487 5497 5511 5505 5500 5496 5493 5489 5484 5480 5477 5474 5472 5469 5468 5467 5467 5466 5465 5465 5464 5463 5462 5461 5461 5460 5458 5456 5454 5452 5450 5447 5445
5446 5452 5458 5459 5455 5452 5457 5462 5464 5473 5464 5463 5480 5501 5494 5490 5488 5486 5483 5478 5474 5470 5468 5465 5462 5461 5459 5458 5457 5456 5454 5452 5451 5450 5449 5449 5447 5445 5443 5441 5438 5436 5434 5432
5445 5446 5463 5470 5460 5451 5453 5454 5455 5456 5459 5462 5476 5499 5488 5482 5481 5479 5477 5473 5469 5465 5462 5459 5456 5454 5452 5450 5448 5446 5444 5442 5440 5438 5437 5437 5435 5433 5431 5428 5426 5423 5421 5419
5444 5439 5452 5475 5474 5457 5453 5452 5451 5453 5461 5465 5471 5491 5492 5485 5481 5478 5474 5470 5466 5461 5457 5454 5451 5448 5445 5442 5439 5437 5435 5432 5430 5428 5427 5425 5423 5421 5419 5416 5413 5410 5408 5405
5441 5440 5432 5438 5438 5438 5444 5449 5450 5451 5462 5466 5480 5479 5489 5487 5480 5476 5471 5466 5461 5457 5453 5450 5447 5443 5438 5435 5431 5428 5426 5423 5420 5418 5416 5414 5411 5409 5407 5404 5401 5398 5395 5391
5432 5432 5423 5428 5431 5430 5435 5448 5449 5450 5455 5460 5464 5472 5483 5478 5472 5469 5464 5461 5457 5454 5450 5446 5441 5437 5433 5429 5425 5421 5418 5414 5410 5408 5406 5403 5400 5398 5395 5392 5388 5385 5382 5378
5426 5421 5430 5445 5421 5427 5452 5463 5456 5456 5459 5462 5467 5481 5478 5471 5468 5466 5463 5459 5455 5452 5447 5442 5438 5433 5428 5424 5419 5414 5410 5405 5401 5398 5395 5392 5389 5386 5383 5379 5376 5372 5368 5365
5416 5413 5415 5426 5428 5460 5487 5462 5462 5460 5463 5462 5467 5473 5471 5469 5466 5462 5459 5455 5452 5449 5444 5439 5434 5429 5423 5417 5411 5406 5401 5396 5392 5388 5385 5381 5378 5374 5371 5367 5363 5359 5355 5351
5418 5413 5414 5418 5437 5456 5471 5459 5453 5454 5468 5468 5463 5466 5466 5458 5456 5462 5455 5450 5448 5444 5439 5434 5429 5423 5417 5411 5404 5398 5393 5388 5383 5379 5375 5371 5366 5363 5359 5355 5351 5346 5342 5337
5407 5406 5410 5408 5435 5458 5485 5457 5447 5450 5464 5473 5462 5463 5460 5451 5458 5469 5453 5445 5440 5435 5430 5426 5420 5414 5409 5403 5396 5390 5385 5380 5375 5371 5365 5360 5355 5351 5347 5342 5337 5332 5327 5323
5399 5400 5403 5407 5423 5449 5464 5445 5441 5455 5478 5469 5460 5457 5452 5449 5456 5452 5442 5437 5432 5427 5422 5417 5412 5407 5402 5395 5388 5382 5378 5373 5367 5361 5355 5349 5344 5339 5334 5329 5324 5319 5314 5310
5416 5410 5401 5401 5412 5448 5452 5439 5450 5469 5464 5456 5454 5450 5446 5445 5441 5436 5432 5428 5424 5420 5415 5409 5404 5399 5393 5385 5379 5375 5370 5364 5357 5350 5344 5339 5333 5327 5322 5317 5312 5306 5301 5297
5419 5432 5430 5427 5456 5461 5449 5452 5454 5449 5449 5449 5447 5443 5438 5435 5433 5429 5425 5420 5416 5412 5407 5401 5396 5390 5384 5376 5370 5366 5361 5353 5346 5339 5334 5328 5322 5316 5311 5306 5300 5295 5289 5285
5419 5415 5418 5418 5443 5447 5443 5443 5442 5439 5439 5440 5437 5434 5430 5428 5426 5421 5417 5412 5408 5403 5398 5392 5386 5381 5375 5368 5361 5357 5350 5342 5335 5329 5323 5317 5312 5307 5301 5294 5289 5283 5278 5274
5431 5411 5411 5418 5439 5439 5444 5442 5442 5439 5434 5430 5428 5425 5423 5421 5418 5414 5410 5406 5401 5396 5390 5384 5378 5374 5369 5361 5353 5346 5339 5331 5325 5319 5313 5308 5302 5297 5291 5284 5278 5272 5267 5261
5430 5423 5426 5446 5451 5444 5450 5447 5440 5434 5431 5428 5423 5420 5416 5412 5411 5408 5404 5400 5394 5388 5382 5376 5371 5366 5360 5352 5345 5338 5330 5322 5315 5310 5304 5298 5293 5287 5280 5274 5268 5262 5257 5252